| time (UTC) | temp F | wind direction | speed knots | gust knots | rain 1hr in | rain 24hr in | rain mn in | humidity % | barometer mb |
| 20260503223004 | 53 | 279 | 6.1 | 11.3 | 0.00 | 0.36 | 0.05 | 42 | 1099.8 |
| 20260503222504 | 53 | 309 | 4.3 | 10.4 | 0.00 | 0.36 | 0.05 | 43 | 1099.8 |
| 20260503222004 | 53 | 317 | 6.1 | 17.4 | 0.00 | 0.36 | 0.05 | 43 | 1099.8 |
| 20260503221505 | 53 | 284 | 4.3 | 11.3 | 0.00 | 0.36 | 0.05 | 43 | 1099.8 |
| 20260503221005 | 54 | 299 | 7.8 | 15.6 | 0.00 | 0.36 | 0.05 | 42 | 1099.8 |
| 20260503220504 | 54 | 279 | 6.1 | 11.3 | 0.00 | 0.36 | 0.05 | 43 | 1099.8 |
| 20260503220004 | 54 | 280 | 5.2 | 10.4 | 0.00 | 0.36 | 0.05 | 43 | 1099.8 |
| 20260503215504 | 54 | 283 | 5.2 | 10.4 | 0.00 | 0.36 | 0.05 | 44 | 1099.8 |
| 20260503215005 | 53 | 311 | 6.1 | 13.0 | 0.00 | 0.36 | 0.05 | 45 | 1099.8 |
| 20260503214504 | 53 | 277 | 7.0 | 10.4 | 0.00 | 0.36 | 0.05 | 44 | 1099.8 |
| 20260503214005 | 53 | 300 | 6.1 | 13.0 | 0.00 | 0.36 | 0.05 | 45 | 1099.8 |
| 20260503213504 | 53 | 300 | 6.1 | 13.9 | 0.00 | 0.36 | 0.05 | 44 | 1099.8 |
| 20260503213004 | 53 | 270 | 5.2 | 11.3 | 0.00 | 0.36 | 0.05 | 45 | 1099.8 |
| 20260503212504 | 53 | 330 | 5.2 | 15.6 | 0.00 | 0.36 | 0.05 | 45 | 1099.8 |
| 20260503212004 | 54 | 281 | 4.3 | 15.6 | 0.00 | 0.36 | 0.05 | 44 | 1099.8 |
| 20260503211505 | 54 | 277 | 7.8 | 13.0 | 0.00 | 0.36 | 0.05 | 44 | 1099.8 |
| 20260503210005 | 53 | 275 | 2.6 | 10.4 | 0.00 | 0.36 | 0.05 | 47 | 1099.8 |
| 20260503205505 | 53 | 286 | 4.3 | 11.3 | 0.00 | 0.36 | 0.05 | 48 | 1099.8 |
| 20260503205005 | 53 | 289 | 6.1 | 13.9 | 0.00 | 0.36 | 0.05 | 46 | 1099.8 |
| 20260503204504 | 54 | 327 | 4.3 | 11.3 | 0.00 | 0.36 | 0.05 | 48 | 1099.8 |
| 20260503204004 | 54 | 289 | 5.2 | 13.9 | 0.00 | 0.36 | 0.05 | 47 | 1099.8 |
| 20260503203505 | 53 | 313 | 7.0 | 12.2 | 0.00 | 0.36 | 0.05 | 48 | 1099.8 |
| 20260503203004 | 53 | 236 | 7.0 | 13.0 | 0.00 | 0.36 | 0.05 | 47 | 1099.8 |
| 20260503202504 | 53 | 295 | 5.2 | 10.4 | 0.00 | 0.36 | 0.05 | 49 | 1099.8 |
| 20260503202004 | 53 | 310 | 6.1 | 13.9 | 0.00 | 0.36 | 0.05 | 49 | 1099.8 |
| 20260503201504 | 53 | 272 | 4.3 | 13.0 | 0.00 | 0.36 | 0.05 | 49 | 1099.8 |
| 20260503201004 | 54 | 290 | 7.0 | 17.4 | 0.00 | 0.36 | 0.05 | 49 | 1099.8 |
| 20260503200505 | 54 | 340 | 6.1 | 11.3 | 0.00 | 0.36 | 0.05 | 51 | 1099.8 |
| 20260503200004 | 53 | 300 | 4.3 | 13.0 | 0.00 | 0.36 | 0.05 | 52 | 1099.8 |
| 20260503195504 | 53 | 260 | 6.1 | 13.0 | 0.00 | 0.36 | 0.05 | 51 | 1099.8 |
| 20260503195005 | 53 | 306 | 7.8 | 15.6 | 0.00 | 0.36 | 0.05 | 52 | 1099.8 |
| 20260503194504 | 52 | 296 | 5.2 | 13.0 | 0.00 | 0.36 | 0.05 | 53 | 1099.8 |
| 20260503194005 | 52 | 309 | 6.1 | 12.2 | 0.00 | 0.36 | 0.05 | 54 | 1099.8 |
| 20260503193505 | 52 | 319 | 6.1 | 13.0 | 0.00 | 0.36 | 0.05 | 54 | 1099.8 |
| 20260503193005 | 52 | 331 | 5.2 | 8.7 | 0.00 | 0.36 | 0.05 | 54 | 1099.8 |
| 20260503192004 | 51 | 319 | 7.8 | 17.4 | 0.00 | 0.36 | 0.05 | 54 | 1099.8 |
| 20260503191504 | 51 | 318 | 7.0 | 13.9 | 0.00 | 0.36 | 0.05 | 55 | 1099.8 |
| 20260503191004 | 52 | 289 | 6.1 | 10.4 | 0.00 | 0.36 | 0.05 | 54 | 1099.8 |
| 20260503190504 | 52 | 308 | 6.1 | 10.4 | 0.00 | 0.36 | 0.05 | 54 | 1099.8 |
| 20260503185504 | 51 | 333 | 5.2 | 10.4 | 0.00 | 0.36 | 0.05 | 56 | 1099.8 |
| 20260503184504 | 50 | 354 | 5.2 | 11.3 | 0.00 | 0.36 | 0.05 | 58 | 1099.8 |
| 20260503184004 | 50 | 346 | 6.1 | 11.3 | 0.00 | 0.36 | 0.05 | 58 | 1099.8 |
| 20260503183504 | 50 | 316 | 7.8 | 11.3 | 0.00 | 0.36 | 0.05 | 58 | 1099.8 |
| 20260503183005 | 50 | 320 | 7.0 | 13.9 | 0.00 | 0.36 | 0.05 | 58 | 1099.8 |
| 20260503182505 | 50 | 27 | 7.8 | 15.6 | 0.00 | 0.36 | 0.05 | 59 | 1099.8 |
| 20260503182006 | 50 | 314 | 7.0 | 17.4 | 0.00 | 0.36 | 0.05 | 60 | 1099.8 |
| 20260503181005 | 49 | 322 | 7.8 | 15.6 | 0.00 | 0.36 | 0.05 | 63 | 1099.8 |
| 20260503180504 | 49 | 326 | 5.2 | 13.0 | 0.00 | 0.36 | 0.05 | 65 | 1099.8 |
| 20260503180004 | 49 | 273 | 5.2 | 10.4 | 0.00 | 0.36 | 0.05 | 65 | 1099.8 |
| 20260503175504 | 49 | 324 | 9.6 | 17.4 | 0.00 | 0.36 | 0.05 | 65 | 1099.8 |
| 20260503175004 | 49 | 312 | 6.1 | 11.3 | 0.00 | 0.36 | 0.05 | 65 | 1099.8 |
| 20260503174504 | 49 | 323 | 7.8 | 13.0 | 0.00 | 0.36 | 0.05 | 65 | 1099.8 |
| 20260503174004 | 50 | 302 | 6.1 | 11.3 | 0.00 | 0.36 | 0.05 | 65 | 1099.8 |
| 20260503173505 | 50 | 350 | 7.0 | 13.9 | 0.00 | 0.36 | 0.05 | 65 | 1099.8 |
| 20260503173004 | 50 | 291 | 7.8 | 18.2 | 0.00 | 0.36 | 0.05 | 64 | 1099.8 |
| 20260503172004 | 51 | 321 | 10.4 | 18.2 | 0.00 | 0.36 | 0.05 | 65 | 1099.8 |
| 20260503171504 | 50 | 238 | 2.6 | 11.3 | 0.00 | 0.36 | 0.05 | 69 | 1099.8 |
| 20260503171004 | 49 | 307 | 6.1 | 11.3 | 0.00 | 0.36 | 0.05 | 69 | 1099.8 |
| 20260503170504 | 49 | 333 | 7.8 | 11.3 | 0.00 | 0.36 | 0.05 | 69 | 1099.8 |
| 20260503151005 | 46 | 346 | 5.2 | 11.3 | 0.00 | 0.36 | 0.05 | 79 | 1099.8 |
| 20260503130505 | 47 | 323 | 6.1 | 11.3 | 0.00 | 0.36 | 0.05 | 77 | 1099.8 |
| 20260503110504 | 44 | 336 | 0.9 | 1.7 | 0.00 | 0.36 | 0.05 | 86 | 1099.8 |
| 20260503081504 | 46 | 233 | 1.7 | 7.0 | 0.01 | 0.36 | 0.05 | 89 | 1099.8 |
| 20260503081005 | 46 | 233 | 0.9 | 4.3 | 0.01 | 0.36 | 0.05 | 89 | 1099.8 |
| 20260503072504 | 46 | 233 | 1.7 | 6.1 | 0.01 | 0.35 | 0.04 | 90 | 1099.8 |
| 20260503072006 | 47 | 233 | 1.7 | 5.2 | 0.01 | 0.35 | 0.04 | 91 | 1099.8 |
| 20260503071005 | 47 | 233 | 0.9 | 4.3 | 0.01 | 0.35 | 0.04 | 91 | 1099.8 |
| 20260503054504 | 48 | 219 | 0.0 | 0.0 | 0.01 | 0.33 | 0.02 | 91 | 1099.8 |
| 20260503054005 | 48 | 219 | 0.0 | 0.0 | 0.01 | 0.33 | 0.02 | 91 | 1099.8 |
| 20260503052005 | 48 | 219 | 0.0 | 0.0 | 0.01 | 0.32 | 0.01 | 91 | 1099.8 |
| 20260503051504 | 48 | 219 | 0.0 | 0.0 | 0.01 | 0.32 | 0.01 | 91 | 1099.8 |
| 20260503050005 | 48 | 219 | 0.9 | 2.6 | 0.01 | 0.32 | 0.01 | 91 | 1099.8 |
| 20260503044505 | 48 | 219 | 0.9 | 2.6 | 0.03 | 0.32 | 0.01 | 91 | 1099.8 |
| 20260503042505 | 48 | 209 | 0.0 | 1.7 | 0.04 | 0.31 | 0.00 | 91 | 1099.8 |
| 20260503042005 | 48 | 209 | 0.0 | 0.0 | 0.05 | 0.31 | 0.00 | 91 | 1099.8 |
| 20260503041505 | 48 | 209 | 0.0 | 2.6 | 0.05 | 0.31 | 0.00 | 91 | 1099.8 |
| 20260503041004 | 48 | 209 | 1.7 | 2.6 | 0.05 | 0.31 | 0.00 | 91 | 1099.8 |
| 20260503040504 | 48 | 209 | 0.0 | 1.7 | 0.05 | 0.31 | 0.00 | 91 | 1099.8 |
| 20260503040004 | 49 | 209 | 0.0 | 1.7 | 0.05 | 0.31 | 0.00 | 91 | 1099.8 |
| 20260503035505 | 49 | 209 | 0.0 | 0.0 | 0.05 | 0.30 | 0.30 | 91 | 1099.8 |
| 20260503035004 | 49 | 209 | 0.0 | 0.0 | 0.05 | 0.30 | 0.30 | 91 | 1099.8 |
| 20260503034504 | 49 | 209 | 0.0 | 0.0 | 0.04 | 0.29 | 0.29 | 91 | 1099.8 |
| 20260503034005 | 49 | 209 | 0.0 | 0.0 | 0.04 | 0.29 | 0.29 | 90 | 1099.8 |
| 20260503033004 | 48 | 209 | 0.0 | 0.9 | 0.04 | 0.28 | 0.28 | 91 | 1099.8 |
| 20260503032504 | 48 | 209 | 0.0 | 0.9 | 0.04 | 0.27 | 0.27 | 91 | 1099.8 |
| 20260503032004 | 48 | 209 | 0.9 | 2.6 | 0.03 | 0.26 | 0.26 | 90 | 1099.8 |
| 20260503031005 | 49 | 191 | 0.0 | 0.0 | 0.04 | 0.26 | 0.26 | 90 | 1099.8 |
| 20260503030504 | 49 | 191 | 0.0 | 0.0 | 0.05 | 0.26 | 0.26 | 90 | 1099.8 |
| 20260503025504 | 49 | 191 | 0.9 | 1.7 | 0.06 | 0.25 | 0.25 | 90 | 1099.8 |
| 20260503025004 | 49 | 191 | 0.9 | 1.7 | 0.07 | 0.25 | 0.25 | 90 | 1099.8 |
| 20260503024504 | 49 | 191 | 0.0 | 0.9 | 0.08 | 0.25 | 0.25 | 90 | 1099.8 |
| 20260503024004 | 49 | 191 | 0.0 | 0.9 | 0.09 | 0.25 | 0.25 | 90 | 1099.8 |
| 20260503023505 | 49 | 191 | 0.0 | 0.0 | 0.09 | 0.24 | 0.24 | 90 | 1099.8 |
| 20260503023004 | 49 | 191 | 0.0 | 0.0 | 0.09 | 0.24 | 0.24 | 90 | 1099.8 |
| 20260503022004 | 49 | 191 | 0.0 | 1.7 | 0.09 | 0.23 | 0.23 | 90 | 1099.8 |
| 20260503015504 | 49 | 191 | 0.0 | 0.0 | 0.07 | 0.19 | 0.19 | 90 | 1099.8 |
| 20260503015004 | 49 | 191 | 0.0 | 0.0 | 0.07 | 0.18 | 0.18 | 90 | 1099.8 |
| 20260503014504 | 49 | 191 | 0.0 | 0.0 | 0.07 | 0.17 | 0.17 | 90 | 1099.8 |
| 20260503014005 | 49 | 191 | 0.0 | 0.0 | 0.06 | 0.16 | 0.16 | 90 | 1099.8 |
| 20260503013504 | 49 | 191 | 0.0 | 0.0 | 0.06 | 0.15 | 0.15 | 90 | 1099.8 |
| 20260503013005 | 49 | 191 | 0.0 | 0.0 | 0.06 | 0.15 | 0.15 | 90 | 1099.8 |
| 20260503012504 | 49 | 191 | 0.0 | 0.0 | 0.06 | 0.14 | 0.14 | 90 | 1099.8 |
| 20260503011004 | 49 | 191 | 0.9 | 2.6 | 0.07 | 0.14 | 0.14 | 89 | 1099.8 |
| 20260503010504 | 49 | 191 | 0.0 | 1.7 | 0.07 | 0.14 | 0.14 | 89 | 1099.8 |
| 20260503010004 | 49 | 191 | 0.0 | 1.7 | 0.07 | 0.13 | 0.13 | 89 | 1099.8 |
| 20260503005504 | 49 | 191 | 0.0 | 0.9 | 0.06 | 0.12 | 0.12 | 89 | 1099.8 |
| 20260503005005 | 49 | 191 | 0.0 | 0.0 | 0.05 | 0.11 | 0.11 | 89 | 1099.8 |
| 20260503004504 | 49 | 191 | 0.0 | 0.0 | 0.04 | 0.10 | 0.10 | 89 | 1099.8 |
| 20260503004005 | 49 | 191 | 0.0 | 0.9 | 0.04 | 0.10 | 0.10 | 89 | 1099.8 |
| 20260503003004 | 49 | 213 | 0.0 | 0.0 | 0.04 | 0.09 | 0.09 | 89 | 1099.8 |
| 20260503002504 | 49 | 213 | 0.0 | 0.0 | 0.03 | 0.08 | 0.08 | 89 | 1099.8 |
| 20260503002004 | 49 | 213 | 0.0 | 0.0 | 0.03 | 0.08 | 0.08 | 88 | 1099.8 |
| 20260503001504 | 49 | 213 | 0.0 | 0.0 | 0.05 | 0.08 | 0.08 | 88 | 1099.8 |
| 20260503001005 | 49 | 213 | 0.0 | 0.0 | 0.05 | 0.07 | 0.07 | 88 | 1099.8 |
| 20260503000505 | 49 | 213 | 0.0 | 1.7 | 0.06 | 0.07 | 0.07 | 88 | 1099.8 |
| 20260503000005 | 49 | 213 | 1.7 | 4.3 | 0.05 | 0.06 | 0.06 | 88 | 1099.8 |
| 20260502235505 | 49 | 199 | 1.7 | 5.2 | 0.06 | 0.06 | 0.06 | 88 | 1099.8 |
| 20260502235004 | 49 | 193 | 2.6 | 5.2 | 0.06 | 0.06 | 0.06 | 88 | 1099.8 |
| 20260502234505 | 50 | 200 | 0.9 | 2.6 | 0.06 | 0.06 | 0.06 | 87 | 1099.8 |
| 20260502234004 | 50 | 199 | 0.0 | 2.6 | 0.06 | 0.06 | 0.06 | 87 | 1099.8 |
| 20260502233504 | 50 | 198 | 0.0 | 2.6 | 0.06 | 0.06 | 0.06 | 87 | 1099.8 |
| 20260502233004 | 50 | 198 | 0.9 | 4.3 | 0.05 | 0.05 | 0.05 | 86 | 1099.8 |
| 20260502232504 | 50 | 188 | 0.9 | 2.6 | 0.05 | 0.05 | 0.05 | 86 | 1099.8 |
| 20260502232004 | 50 | 188 | 0.9 | 4.3 | 0.05 | 0.05 | 0.05 | 86 | 1099.8 |
| 20260502231504 | 50 | 188 | 0.9 | 1.7 | 0.03 | 0.03 | 0.03 | 85 | 1099.8 |
| 20260502231005 | 50 | 188 | 0.9 | 5.2 | 0.02 | 0.02 | 0.02 | 84 | 1099.8 |
| 20260502230004 | 51 | 184 | 1.7 | 2.6 | 0.01 | 0.01 | 0.01 | 82 | 1099.8 |
| 20260502225504 | 51 | 183 | 0.0 | 2.6 | 0.00 | 0.00 | 0.00 | 81 | 1099.8 |
| 20260502224505 | 51 | 187 | 2.6 | 8.7 | 0.00 | 0.00 | 0.00 | 80 | 1099.8 |
| 20260502224005 | 51 | 214 | 1.7 | 6.1 | 0.00 | 0.00 | 0.00 | 80 | 1099.8 |
| 20260502223504 | 52 | 171 | 1.7 | 4.3 | 0.00 | 0.00 | 0.00 | 80 | 1099.8 |